TimePST,TemperatureF,Dew PointF,Humidity,Sea Level PressureIn,VisibilityMPH,Wind Direction,Wind SpeedMPH,Gust SpeedMPH,PrecipitationIn,Events,Conditions,WindDirDegrees,DateUTC
12:53 AM,37.0,34.0,89,29.91,10.0,SE,4.6,-,N/A,,Mostly Cloudy,140,2013-02-07 08:53:00
1:53 AM,39.9,37.0,89,29.95,8.0,WNW,11.5,-,0.00,Rain,Light Rain,300,2013-02-07 09:53:00
2:53 AM,42.1,37.0,82,29.94,10.0,NW,10.4,-,0.01,,Overcast,310,2013-02-07 10:53:00
3:53 AM,41.0,35.1,79,29.95,10.0,WNW,11.5,-,N/A,,Overcast,300,2013-02-07 11:53:00
4:53 AM,39.9,34.0,79,29.97,10.0,NW,9.2,-,N/A,,Partly Cloudy,320,2013-02-07 12:53:00
5:53 AM,39.0,33.1,79,29.99,10.0,West,4.6,-,N/A,,Clear,280,2013-02-07 13:53:00
6:53 AM,36.0,30.9,82,29.99,10.0,NW,5.8,-,N/A,,Clear,310,2013-02-07 14:53:00
7:53 AM,35.1,30.9,85,30.01,10.0,SSE,3.5,-,N/A,,Clear,160,2013-02-07 15:53:00
8:53 AM,39.0,34.0,82,30.03,10.0,SE,5.8,-,N/A,,Clear,130,2013-02-07 16:53:00
9:53 AM,44.1,35.1,71,30.02,10.0,Calm,Calm,-,N/A,,Clear,0,2013-02-07 17:53:00
10:53 AM,46.9,34.0,61,30.03,10.0,NW,10.4,-,N/A,,Clear,310,2013-02-07 18:53:00
11:53 AM,48.9,30.0,48,30.01,10.0,WNW,12.7,-,N/A,,Partly Cloudy,300,2013-02-07 19:53:00
12:53 PM,50.0,30.9,48,30.00,10.0,WNW,9.2,-,N/A,,Clear,290,2013-02-07 20:53:00
1:53 PM,48.0,28.9,48,29.99,10.0,NW,12.7,-,N/A,,Clear,320,2013-02-07 21:53:00
2:53 PM,48.0,30.9,52,30.00,10.0,WNW,9.2,-,N/A,,Clear,300,2013-02-07 22:53:00
3:53 PM,48.0,30.9,52,30.00,10.0,West,6.9,-,N/A,,Clear,280,2013-02-07 23:53:00
4:53 PM,46.0,28.9,51,30.01,10.0,West,11.5,-,N/A,,Clear,270,2013-02-08 00:53:00
5:53 PM,43.0,28.9,58,30.03,10.0,West,5.8,-,N/A,,Clear,270,2013-02-08 01:53:00
6:53 PM,41.0,28.9,62,30.04,10.0,Calm,Calm,-,N/A,,Clear,0,2013-02-08 02:53:00
7:53 PM,39.9,30.0,68,30.06,10.0,North,4.6,-,N/A,,Clear,350,2013-02-08 03:53:00
8:53 PM,39.0,30.0,70,30.08,10.0,Variable,3.5,-,N/A,,Clear,0,2013-02-08 04:53:00
9:53 PM,37.0,30.0,76,30.09,10.0,WNW,3.5,-,N/A,,Clear,300,2013-02-08 05:53:00
10:53 PM,32.0,27.0,82,30.11,10.0,Calm,Calm,-,N/A,,Clear,0,2013-02-08 06:53:00
11:53 PM,35.1,30.0,82,30.12,10.0,NW,9.2,-,N/A,,Clear,320,2013-02-08 07:53:00